Weather Roundup
Issued by NWS Chicago, IL

Home | Current Version | Previous Version | Text Only | Print | Product List | Glossary On
Versions: 1 2 3 4 5 6 7 8 9 10 11 12 13 14 15 16 17 18 19 20 21 22 23 24 25 26 27 28 29 30 31 32 33 34 35 36 37 38 39 40 41 42 43 44 45 46 47 48 49 50
000
NZUS59 KLOT 180810
HRRLOT

CHICAGO AREA WEATHER ROUNDUP
NATIONAL WEATHER SERVICE CHICAGO/ROMEOVILLE IL
300 AM CDT FRI APR 18 2014

NOTE: "FAIR" INDICATES FEW OR NO CLOUDS BELOW 12,000 FEET WITH NO
SIGNIFICANT WEATHER AND/OR OBSTRUCTIONS TO VISIBILITY.

* THESE STATIONS ARE NOT UNDER NWS QUALITY CONTROL. THEY ALSO MAY NOT
  REPORT WEATHER SUCH AS PRECIPITATION OR FOG.

ILZ005-006-012>014-019>023-180900-
NORTHEAST ILLINOIS

CITY           SKY/WX    TMP DP  RH WIND       PRES   REMARKS
OHARE          CLOUDY    44  36  73 CALM      30.24F
MIDWAY         CLOUDY    49  39  68 CALM      30.24F
AURORA         MOCLDY    38  34  85 NW6       30.25F
LANSING*       CLOUDY    48  40  72 W3        30.25S
JOLIET*        CLOUDY    46  37  73 CALM      30.26S
WAUKEGAN       MOCLDY    38  34  85 NE6       30.26F
DUPAGE AIRPORT MOCLDY    42  36  79 NW3       30.24F
WHEELING       MOCLDY    45  38  76 N9        30.26S
KANKAKEE*      CLOUDY    49  40  72 CALM      30.25S
MORRIS*        CLOUDY    42  36  76 NW6       30.24F
LEWIS AIRPORT* CLOUDY    45  38  76 W6        30.25S
NORTHERLY IS     N/A     45  38  76 SE1         N/A
$$

WIZ051-052-058>065-066-070>072-180900-
SOUTHEAST WISCONSIN

CITY           SKY/WX    TMP DP  RH WIND       PRES   REMARKS
MILWAUKEE      MOCLDY    40  33  76 NW7       30.29S
KENOSHA*       PTCLDY    38  35  89 NE6       30.27S
RACINE*        PTCLDY    40  35  83 N8        30.29S
BURLINGTON     MOCLDY    36  33  88 N5        30.27S
WAUKESHA       MOCLDY    34  32  93 NW6       30.29S WCI  29
WEST BEND      CLEAR     34  30  86 CALM      30.28S
$$

INZ001>003-010>013-019-020-180900-
NORTHWEST INDIANA

CITY           SKY/WX    TMP DP  RH WIND       PRES   REMARKS
GARY*          CLOUDY    47  40  77 CALM      30.25S
MICHIGAN CITY* NOT AVBL
RENSSELAER*    NOT AVBL
VALPARAISO     CLOUDY    48  41  76 N3        30.24F
$$

LMZ740>746-180900-
SOUTHERN LAKE MICHIGAN

STATION/POSITION TIME  SKY/WX   TEMP WIND        PRES    VSBY
                                AIR  DIR/SP/G
                 (UTC)          (F)  (DEG/KT/KT) (MB)    (MI)
HARRISON CRIB    0800            45  180/  5/  6   N/A
BURNHAM HARBOR   0800            45  170/  1/  4   N/A
CALUMET HARBOR   0800            45  330/  2/  2 1024.8F
BURNS HARBOR     NOT AVBL
MICHIGAN CITY    0800            48  130/  6/  6   N/A
$$

ABBREVIATIONS USED IN REMARKS
   TC - TEMPERATURE IN CELSIUS
  WCI - WIND CHILL INDEX
   HX - HEAT INDEX
  VSB - VISIBILITY
$$


USA.gov is the U.S. government's official web portal to all federal, state and local government web resources and services.